Terminal Aerodrome Forecast
Issued by NWS

Home | Current Version | Previous Version | Text Only | Print | Product List | Glossary On
Versions: 1 2 3 4 5 6 7 8 9 10 11 12 13 14 15 16 17 18 19
000
FTUS41 KBOX 281737
TAFHYA
TAF
KHYA 281737Z 2818/2918 04004KT P6SM VCSH BKN008
     FM282200 07004KT 3SM -RA OVC008
     FM290000 05006KT 2SM RA BR OVC003
     FM290600 02005KT 1/2SM -RA FG OVC002
     FM290900 01006KT 2SM BR VCSH OVC003
     FM291100 36007KT P6SM OVC005
     FM291600 35012G24KT P6SM BKN015=

USA.gov is the U.S. government's official web portal to all federal, state and local government web resources and services.